Satellite-Ground Cal/Val Region Overpasses Predictions

Prediction of Satellite NPP Overpassing Cal/Val Region: PacNW

Region Location: (Latitude: 10.00, Longitude: 139.50) to (Latitude: 22.70, Longitude: 165.60).

Table of predicted overpasses for the next 14.0 days since TLE Epoch: 3/6/2020
Interval Starting Time Starting Location Ending Time Ending Location
1 03/06/2020 15:42:32 ( 22.65, 149.19) 03/06/2020 15:46:07 ( 10.03, 146.19)
2 03/07/2020 02:51:37 ( 10.02, 156.72) 03/07/2020 02:55:12 ( 22.65, 153.72)
3 03/07/2020 15:23:31 ( 22.64, 153.94) 03/07/2020 15:27:06 ( 10.02, 150.94)
4 03/08/2020 02:32:35 ( 10.03, 161.47) 03/08/2020 02:36:10 ( 22.65, 158.47)
5 03/08/2020 15:04:28 ( 22.69, 158.71) 03/08/2020 15:08:04 ( 10.01, 155.70)
6 03/09/2020 02:14:21 ( 12.80, 165.59) 03/09/2020 02:17:09 ( 22.66, 163.22)
7 03/09/2020 03:55:04 ( 10.05, 140.85) 03/09/2020 03:56:43 ( 15.86, 139.50)
8 03/09/2020 14:45:27 ( 22.69, 163.47) 03/09/2020 14:49:03 ( 10.01, 160.45)
9 03/10/2020 03:36:02 ( 10.05, 145.61) 03/10/2020 03:39:37 ( 22.68, 142.60)
10 03/10/2020 14:29:32 ( 11.70, 165.60) 03/10/2020 14:30:00 ( 10.06, 165.22)
11 03/10/2020 16:07:55 ( 22.67, 142.84) 03/10/2020 16:11:30 ( 10.05, 139.84)
12 03/11/2020 03:17:00 ( 10.00, 150.37) 03/11/2020 03:20:36 ( 22.68, 147.36)
13 03/11/2020 15:48:54 ( 22.66, 147.60) 03/11/2020 15:52:29 ( 10.04, 144.60)
14 03/12/2020 02:57:59 ( 10.01, 155.13) 03/12/2020 03:01:35 ( 22.69, 152.11)
15 03/12/2020 15:29:52 ( 22.65, 152.35) 03/12/2020 15:33:27 ( 10.03, 149.35)
16 03/13/2020 02:38:57 ( 10.02, 159.88) 03/13/2020 02:42:32 ( 22.64, 156.88)
17 03/13/2020 15:10:51 ( 22.64, 157.11) 03/13/2020 15:14:26 ( 10.02, 154.11)
18 03/14/2020 02:19:56 ( 10.03, 164.64) 03/14/2020 02:23:31 ( 22.65, 161.63)
19 03/14/2020 14:51:48 ( 22.69, 161.88) 03/14/2020 14:55:24 ( 10.01, 158.86)
20 03/15/2020 03:42:24 ( 10.05, 144.02) 03/15/2020 03:45:59 ( 22.67, 141.01)
21 03/15/2020 14:33:59 ( 18.46, 165.59) 03/15/2020 14:36:23 ( 10.00, 163.61)
22 03/15/2020 16:14:17 ( 22.68, 141.25) 03/15/2020 16:16:20 ( 15.46, 139.50)
23 03/16/2020 03:23:23 ( 10.06, 148.77) 03/16/2020 03:26:58 ( 22.68, 145.77)
24 03/16/2020 15:55:15 ( 22.67, 146.01) 03/16/2020 15:58:50 ( 10.05, 143.01)
25 03/17/2020 03:04:20 ( 10.01, 153.54) 03/17/2020 03:07:56 ( 22.69, 150.52)
26 03/17/2020 15:36:14 ( 22.66, 150.76) 03/17/2020 15:39:49 ( 10.04, 147.76)
27 03/18/2020 02:45:19 ( 10.02, 158.29) 03/18/2020 02:48:55 ( 22.70, 155.28)
28 03/18/2020 15:17:13 ( 22.65, 155.52) 03/18/2020 15:20:48 ( 10.03, 152.52)
29 03/19/2020 02:26:17 ( 10.03, 163.05) 03/19/2020 02:29:52 ( 22.65, 160.04)
30 03/19/2020 14:58:10 ( 22.70, 160.29) 03/19/2020 15:01:46 ( 10.02, 157.27)
31 03/20/2020 02:09:56 ( 19.44, 165.59) 03/20/2020 02:10:51 ( 22.66, 164.80)


NCC Satellite Cal/Val Overpasses Prediction Service
